Hourly Data Report for October 09, 2013

All times are specified in Local Standard Time (LST). Add 1 hour to adjust for Daylight Saving Time where and when it is observed.

SAINT JOHN A
NEW BRUNSWICK

45°18'58.000" N
65°53'24.000" W
108.80 m
8104901
71609
YSJ

Download Data

Hourly Data (October 2013)
Hourly Data Report for October 9, 2013
Temp Definition
°C
Dew Point Temp Definition
°C
Rel Hum Definition
%
Wind Dir Definition
10's deg

Wind Spd Definition
km/h
Visibility Definition
km
Stn Press Definition
kPa
Hmdx Definition


Wind Chill Definition


Weather Definition


TIME
00:00 Legend Double Dagger 1.9 1.0 94 32 2 24.1 101.43     LegendNANA
01:00 Legend Double Dagger 0.3 -0.1 97 3 3 24.1 101.51     LegendNANA
02:00 Legend Double Dagger 0.6 0.3 98 33 4 24.1 101.50     Clear
03:00 Legend Double Dagger 0.6 0.2 97 35 1 24.1 101.52     LegendNANA
04:00 Legend Double Dagger 0.7 0.6 99 33 5 24.1 101.59     Fog
05:00 Legend Double Dagger 1.0 1.0 100 17 2 16.1 101.62     Fog
06:00 Legend Double Dagger -0.3 -0.3 100 36 3 24.1 101.65   -1 Fog
07:00 Legend Double Dagger -0.1 -0.2 99 3 7 24.1 101.73   -3 Fog
08:00 Legend Double Dagger 7.2 3.6 78 36 16 24.1 101.77     Mainly Clear
09:00 Legend Double Dagger 10.0 4.0 66 1 15 24.1 101.77     LegendNANA
10:00 Legend Double Dagger 11.9 4.2 59 2 14 24.1 101.78     LegendNANA
11:00 Legend Double Dagger 13.6 4.8 55 1 12 24.1 101.74     Mainly Clear
12:00 Legend Double Dagger 14.7 3.6 47 35 8 24.1 101.70     LegendNANA
13:00 Legend Double Dagger 15.2 2.8 43 34 9 24.1 101.65     LegendNANA
14:00 Legend Double Dagger 16.4 3.6 42 33 12 24.1 101.60     Mainly Clear
15:00 Legend Double Dagger 15.2 5.8 53 26 12 24.1 101.58     LegendNANA
16:00 Legend Double Dagger 13.6 5.1 56 23 21 24.1 101.55     LegendNANA
17:00 Legend Double Dagger 12.1 4.1 58 23 13 24.1 101.52     Mainly Clear
18:00 Legend Double Dagger 8.8 4.3 73 21 13 24.1 101.53     LegendNANA
19:00 Legend Double Dagger 7.8 5.5 85 22 8 24.1 101.54     LegendNANA
20:00 Legend Double Dagger 8.3 5.8 84 22 14 24.1 101.54     Clear
21:00 Legend Double Dagger 6.1 4.6 90 20 10 24.1 101.53     LegendNANA
22:00 Legend Double Dagger 4.7 4.0 95 17 5 24.1 101.52     LegendNANA
23:00 Legend Double Dagger 2.0 1.3 95 22 3 24.1 101.45     Clear

Notes on Data Quality.

Legend

  • E = Estimated
  • M = Missing
  • NA = Not Available
  • ‡ = Partner data that is not subject to review by the National Climate Archives
Date modified: